Location: Oshawa
(43.9000°N, 78.8670°W)
Time: 22:04:20
(UTC-04:00)

PAYLOAD A - Visible Passes

Search period start: 30 March 2015 00:00
Search period end: 09 April 2015 00:00
Orbit: 691 x 833 km, 98.2° (Epoch: 30 March)

Date Brightness Start Highest point End Pass type
(mag) Time Alt. Az. Time Alt. Az. Time Alt. Az.
31 Mar 6.8 20:59:45 10° WSW 21:02:19 14° W 21:04:39 10° WNW visible
01 Apr 5.8 20:20:06 10° SSW 20:24:17 32° W 20:28:30 10° NNW visible
03 Apr 6.6 20:44:58 10° SW 20:48:22 19° W 20:51:39 10° NW visible
05 Apr 7.1 21:11:12 10° WSW 21:12:33 11° W 21:13:36 10° WNW visible
06 Apr 6.3 20:30:31 10° SSW 20:34:26 26° W 20:38:22 10° NW visible
08 Apr 6.8 20:55:44 10° SW 20:58:34 15° W 21:01:14 10° NW visible
